Precipitable_Water
1.09 1.09 1.08 1.06 1.02 0.87 0.84 0.83 0.84 0.83 0.81 0.78 0.76 0.72 0.68 0.64 0.63 0.61 0.55 0.59 0.47 0.37 0.39 0.40 0.40 0.35 0.40 0.42 0.37 0.43 0.40 0.41 0.38 0.32 0.32 0.32 0.29 0.30 0.28 0.32 0.32 0.32 0.31 0.32 0.34 0.31 0.27 0.46 0.44 0.35 0.42 0.46 0.45 0.46
1.09 1.06 1.06 1.05 1.03 0.99 0.86 0.83 0.86 0.87 0.86 0.84 0.82 0.78 0.74 0.70 0.67 0.65 0.54 0.63 0.59 0.44 0.43 0.51 0.51 0.53 0.54 0.55 0.51 0.50 0.45 0.43 0.44 0.37 0.37 0.35 0.30 0.31 0.29 0.25 0.36 0.28 0.33 0.32 0.34 0.33 0.43 0.45 0.43 0.44 0.45 0.43 0.44 0.45
1.11 1.09 1.06 1.03 1.01 0.98 0.94 0.89 0.85 0.88 0.88 0.88 0.86 0.83 0.80 0.78 0.72 0.66 0.59 0.60 0.57 0.45 0.44 0.43 0.41 0.53 0.63 0.65 0.68 0.49 0.50 0.52 0.48 0.53 0.44 0.40 0.33 0.38 0.31 0.33 0.36 0.39 0.42 0.36 0.35 0.38 0.41 0.44 0.47 0.48 0.49 0.48 0.49 0.50
1.09 1.10 1.04 1.00 0.98 0.97 0.95 0.88 0.90 0.92 0.93 0.91 0.90 0.88 0.85 0.83 0.78 0.73 0.62 0.62 0.56 0.48 0.35 0.39 0.53 0.49 0.60 0.66 0.66 0.65 0.61 0.60 0.58 0.54 0.45 0.42 0.38 0.46 0.39 0.41 0.39 0.42 0.42 0.39 0.38 0.42 0.43 0.45 0.46 0.47 0.47 0.48 0.47 0.45
1.04 1.06 1.06 1.02 0.95 0.95 0.96 0.89 0.87 0.94 1.00 0.97 0.94 0.92 0.89 0.86 0.83 0.77 0.71 0.69 0.66 0.49 0.38 0.42 0.53 0.57 0.60 0.59 0.59 0.63 0.62 0.59 0.54 0.48 0.44 0.41 0.47 0.46 0.47 0.45 0.38 0.43 0.39 0.35 0.33 0.41 0.40 0.42 0.46 0.48 0.46 0.43 0.40 0.36
0.91 0.97 0.99 0.99 0.94 0.92 0.95 0.91 0.88 0.92 1.00 0.98 0.97 0.97 0.93 0.88 0.85 0.74 0.57 0.68 0.69 0.64 0.43 0.33 0.52 0.50 0.55 0.57 0.58 0.59 0.59 0.58 0.56 0.50 0.48 0.50 0.53 0.46 0.39 0.36 0.42 0.45 0.46 0.46 0.41 0.45 0.45 0.47 0.48 0.46 0.41 0.38 0.36 0.33
0.73 0.93 0.95 0.89 0.89 0.97 0.96 0.93 0.91 0.91 0.96 0.98 0.98 0.99 0.96 0.92 0.84 0.67 0.59 0.65 0.71 0.69 0.50 0.38 0.40 0.49 0.53 0.56 0.57 0.57 0.59 0.55 0.53 0.50 0.47 0.48 0.47 0.48 0.42 0.34 0.41 0.43 0.45 0.46 0.47 0.46 0.42 0.44 0.40 0.40 0.37 0.33 0.32 0.31
0.46 0.69 0.79 0.81 0.92 0.97 0.93 0.93 0.91 0.92 0.96 0.97 0.99 0.99 0.96 0.92 0.85 0.71 0.77 0.78 0.77 0.64 0.56 0.39 0.38 0.42 0.54 0.49 0.48 0.58 0.53 0.55 0.54 0.51 0.50 0.46 0.48 0.46 0.36 0.39 0.41 0.43 0.44 0.44 0.44 0.45 0.42 0.42 0.39 0.33 0.32 0.29 0.26 0.25
0.41 0.63 0.78 0.87 0.92 0.95 0.92 0.92 0.90 0.90 0.95 0.96 0.96 0.92 0.86 0.79 0.70 0.75 0.83 0.80 0.77 0.64 0.46 0.43 0.38 0.37 0.54 0.50 0.52 0.53 0.54 0.43 0.51 0.43 0.43 0.44 0.38 0.32 0.35 0.37 0.39 0.41 0.40 0.39 0.40 0.40 0.38 0.33 0.29 0.26 0.25 0.24 0.23 0.23
0.42 0.58 0.78 0.88 0.92 0.92 0.91 0.90 0.88 0.90 0.94 0.89 0.83 0.69 0.57 0.69 0.83 0.80 0.70 0.62 0.60 0.59 0.57 0.46 0.50 0.42 0.51 0.50 0.48 0.47 0.49 0.42 0.36 0.40 0.45 0.37 0.33 0.38 0.38 0.39 0.41 0.42 0.41 0.38 0.35 0.32 0.28 0.25 0.23 0.24 0.23 0.23 0.23 0.22
0.46 0.59 0.83 0.89 0.88 0.85 0.84 0.85 0.85 0.89 0.85 0.73 0.62 0.58 0.69 0.79 0.68 0.60 0.50 0.47 0.48 0.43 0.48 0.47 0.49 0.44 0.54 0.44 0.44 0.47 0.41 0.41 0.31 0.35 0.34 0.31 0.30 0.33 0.37 0.37 0.41 0.43 0.41 0.38 0.34 0.29 0.26 0.24 0.23 0.23 0.23 0.24 0.23 0.23
0.60 0.70 0.80 0.75 0.82 0.80 0.78 0.83 0.84 0.80 0.71 0.68 0.67 0.70 0.66 0.57 0.50 0.44 0.40 0.43 0.41 0.38 0.44 0.42 0.43 0.48 0.50 0.54 0.44 0.44 0.37 0.37 0.28 0.40 0.32 0.26 0.31 0.36 0.37 0.38 0.39 0.39 0.36 0.31 0.28 0.26 0.26 0.25 0.25 0.24 0.24 0.24 0.22 0.22
0.66 0.69 0.73 0.79 0.82 0.84 0.86 0.88 0.85 0.79 0.75 0.69 0.58 0.50 0.47 0.45 0.35 0.33 0.29 0.32 0.33 0.39 0.44 0.44 0.41 0.46 0.47 0.47 0.40 0.38 0.32 0.30 0.39 0.30 0.26 0.28 0.34 0.34 0.35 0.39 0.36 0.34 0.31 0.29 0.26 0.27 0.27 0.26 0.26 0.25 0.24 0.24 0.24 0.23
0.79 0.78 0.86 0.88 0.89 0.88 0.84 0.80 0.78 0.76 0.67 0.51 0.44 0.35 0.37 0.33 0.34 0.35 0.34 0.35 0.41 0.42 0.41 0.42 0.41 0.40 0.43 0.37 0.39 0.31 0.35 0.35 0.27 0.24 0.23 0.30 0.31 0.32 0.34 0.36 0.34 0.32 0.29 0.29 0.30 0.29 0.28 0.27 0.25 0.25 0.25 0.25 0.24 0.22
0.81 0.82 0.82 0.82 0.79 0.78 0.77 0.75 0.75 0.72 0.57 0.44 0.43 0.33 0.34 0.39 0.41 0.41 0.41 0.39 0.43 0.45 0.41 0.39 0.39 0.40 0.37 0.35 0.35 0.33 0.28 0.24 0.26 0.24 0.29 0.30 0.31 0.32 0.31 0.32 0.34 0.33 0.32 0.32 0.33 0.32 0.31 0.28 0.26 0.24 0.24 0.23 0.22 0.20
0.71 0.71 0.69 0.72 0.72 0.72 0.72 0.71 0.68 0.63 0.51 0.43 0.40 0.34 0.36 0.35 0.34 0.37 0.38 0.37 0.44 0.44 0.46 0.44 0.37 0.33 0.32 0.32 0.29 0.27 0.25 0.23 0.25 0.29 0.32 0.30 0.29 0.28 0.26 0.26 0.26 0.27 0.26 0.28 0.30 0.29 0.25 0.20 0.19 0.19 0.20 0.20 0.19 0.20
0.65 0.59 0.64 0.65 0.67 0.67 0.67 0.61 0.55 0.47 0.42 0.37 0.35 0.40 0.38 0.36 0.35 0.35 0.37 0.40 0.47 0.42 0.35 0.36 0.29 0.27 0.32 0.27 0.25 0.29 0.25 0.28 0.31 0.32 0.31 0.30 0.29 0.28 0.28 0.27 0.25 0.23 0.22 0.22 0.19 0.16 0.17 0.18 0.17 0.17 0.15 0.15 0.18 0.20
0.55 0.60 0.63 0.62 0.61 0.59 0.55 0.52 0.44 0.39 0.33 0.35 0.33 0.35 0.37 0.37 0.35 0.36 0.38 0.40 0.40 0.38 0.36 0.30 0.33 0.25 0.21 0.19 0.20 0.25 0.27 0.28 0.28 0.28 0.28 0.28 0.27 0.26 0.24 0.21 0.19 0.17 0.16 0.16 0.17 0.18 0.18 0.17 0.17 0.16 0.17 0.18 0.19 0.19
0.56 0.58 0.59 0.59 0.55 0.48 0.41 0.41 0.43 0.32 0.34 0.36 0.36 0.37 0.35 0.34 0.35 0.35 0.34 0.35 0.38 0.38 0.34 0.30 0.24 0.23 0.23 0.25 0.24 0.25 0.25 0.25 0.23 0.22 0.22 0.22 0.22 0.19 0.17 0.16 0.16 0.17 0.18 0.18 0.18 0.18 0.18 0.19 0.19 0.19 0.21 0.22 0.21 0.21
0.56 0.59 0.58 0.57 0.53 0.41 0.35 0.35 0.42 0.32 0.29 0.33 0.35 0.32 0.32 0.32 0.33 0.33 0.32 0.32 0.32 0.30 0.27 0.25 0.24 0.25 0.25 0.25 0.25 0.22 0.20 0.21 0.20 0.18 0.18 0.18 0.17 0.17 0.17 0.18 0.18 0.18 0.19 0.19 0.19 0.19 0.19 0.19 0.20 0.23 0.23 0.23 0.23 0.24
0.52 0.52 0.54 0.52 0.45 0.40 0.35 0.31 0.30 0.31 0.31 0.29 0.31 0.30 0.28 0.29 0.26 0.24 0.23 0.27 0.25 0.23 0.22 0.24 0.22 0.21 0.20 0.18 0.19 0.19 0.18 0.18 0.18 0.17 0.16 0.15 0.17 0.18 0.18 0.17 0.19 0.19 0.19 0.19 0.18 0.18 0.20 0.20 0.22 0.25 0.25 0.25 0.26 0.27
0.45 0.48 0.45 0.45 0.37 0.34 0.32 0.35 0.29 0.30 0.26 0.26 0.25 0.26 0.23 0.20 0.19 0.19 0.23 0.20 0.19 0.19 0.19 0.16 0.15 0.16 0.16 0.16 0.17 0.17 0.18 0.18 0.18 0.19 0.19 0.18 0.16 0.15 0.15 0.16 0.18 0.17 0.17 0.17 0.19 0.20 0.21 0.21 0.24 0.25 0.26 0.26 0.28 0.26
0.41 0.40 0.36 0.36 0.28 0.27 0.25 0.32 0.24 0.25 0.20 0.21 0.22 0.19 0.19 0.18 0.19 0.21 0.15 0.16 0.16 0.16 0.15 0.15 0.16 0.17 0.17 0.17 0.18 0.17 0.17 0.17 0.17 0.17 0.16 0.16 0.18 0.18 0.18 0.17 0.17 0.17 0.17 0.17 0.20 0.21 0.21 0.23 0.24 0.24 0.25 0.26 0.25 0.24
0.37 0.29 0.24 0.24 0.24 0.21 0.26 0.22 0.24 0.21 0.21 0.19 0.17 0.15 0.16 0.17 0.19 0.15 0.12 0.13 0.13 0.14 0.15 0.15 0.16 0.15 0.16 0.16 0.15 0.15 0.15 0.18 0.18 0.18 0.17 0.18 0.17 0.17 0.19 0.19 0.20 0.20 0.21 0.23 0.23 0.22 0.24 0.24 0.24 0.25 0.25 0.23 0.23 0.22
0.19 0.21 0.21 0.19 0.23 0.19 0.18 0.18 0.18 0.17 0.15 0.16 0.15 0.14 0.14 0.16 0.12 0.11 0.09 0.09 0.11 0.12 0.14 0.15 0.16 0.16 0.15 0.15 0.15 0.15 0.17 0.19 0.18 0.17 0.16 0.20 0.20 0.20 0.19 0.21 0.22 0.22 0.24 0.25 0.24 0.25 0.25 0.26 0.27 0.26 0.26 0.25 0.24 0.24
0.13 0.17 0.15 0.15 0.17 0.15 0.15 0.12 0.13 0.13 0.14 0.13 0.13 0.14 0.14 0.12 0.10 0.08 0.09 0.10 0.11 0.13 0.14 0.15 0.15 0.15 0.16 0.17 0.15 0.15 0.16 0.20 0.21 0.19 0.18 0.21 0.22 0.22 0.21 0.21 0.22 0.22 0.28 0.30 0.29 0.28 0.27 0.28 0.28 0.28 0.26 0.26 0.27 0.27
0.13 0.13 0.17 0.22 0.19 0.17 0.15 0.15 0.15 0.13 0.12 0.11 0.12 0.12 0.12 0.10 0.09 0.10 0.12 0.14 0.14 0.16 0.17 0.18 0.18 0.18 0.17 0.17 0.18 0.20 0.21 0.23 0.23 0.23 0.24 0.25 0.26 0.29 0.29 0.27 0.26 0.27 0.30 0.31 0.31 0.31 0.30 0.29 0.29 0.28 0.28 0.27 0.27 0.26
0.16 0.16 0.12 0.15 0.16 0.18 0.14 0.14 0.13 0.12 0.13 0.15 0.15 0.12 0.10 0.10 0.09 0.12 0.13 0.15 0.17 0.19 0.20 0.20 0.21 0.21 0.21 0.21 0.23 0.25 0.26 0.28 0.29 0.30 0.31 0.31 0.32 0.32 0.31 0.31 0.30 0.30 0.30 0.31 0.31 0.31 0.30 0.29 0.27 0.27 0.27 0.26 0.25 0.26
0.17 0.19 0.19 0.16 0.18 0.17 0.16 0.14 0.13 0.15 0.16 0.15 0.13 0.12 0.13 0.14 0.15 0.15 0.16 0.18 0.20 0.20 0.18 0.18 0.20 0.23 0.26 0.28 0.29 0.30 0.31 0.30 0.28 0.25 0.24 0.23 0.24 0.26 0.30 0.29 0.29 0.30 0.31 0.31 0.32 0.33 0.32 0.29 0.28 0.28 0.28 0.28 0.27 0.26
0.17 0.21 0.17 0.17 0.16 0.14 0.15 0.18 0.16 0.18 0.19 0.19 0.19 0.18 0.17 0.16 0.17 0.20 0.19 0.19 0.19 0.19 0.21 0.23 0.25 0.26 0.25 0.25 0.25 0.26 0.30 0.31 0.31 0.29 0.25 0.24 0.25 0.28 0.29 0.28 0.29 0.30 0.32 0.32 0.31 0.30 0.31 0.29 0.27 0.27 0.26 0.25 0.23 0.23
0.21 0.20 0.18 0.17 0.15 0.16 0.18 0.21 0.21 0.21 0.21 0.19 0.20 0.18 0.15 0.15 0.18 0.19 0.20 0.21 0.21 0.23 0.24 0.25 0.25 0.26 0.25 0.25 0.25 0.25 0.24 0.28 0.31 0.32 0.32 0.31 0.31 0.30 0.31 0.31 0.33 0.33 0.34 0.34 0.32 0.30 0.28 0.25 0.23 0.23 0.22 0.22 0.22 0.24
0.20 0.18 0.17 0.15 0.15 0.19 0.20 0.19 0.18 0.16 0.16 0.15 0.14 0.16 0.15 0.16 0.15 0.17 0.20 0.22 0.23 0.24 0.25 0.26 0.26 0.26 0.29 0.30 0.31 0.32 0.33 0.32 0.33 0.33 0.31 0.31 0.31 0.31 0.32 0.32 0.33 0.34 0.33 0.32 0.30 0.27 0.26 0.24 0.22 0.22 0.23 0.24 0.25 0.25
0.18 0.18 0.18 0.17 0.16 0.16 0.17 0.17 0.16 0.14 0.13 0.12 0.12 0.13 0.14 0.15 0.15 0.19 0.25 0.26 0.26 0.27 0.27 0.28 0.29 0.30 0.31 0.32 0.32 0.33 0.34 0.33 0.33 0.33 0.33 0.34 0.34 0.33 0.34 0.33 0.33 0.33 0.32 0.29 0.27 0.24 0.23 0.22 0.23 0.24 0.25 0.25 0.26 0.26
Wind_Speed
43 42 41 39 38 36 35 34 32 30 28 26 24 23 21 19 18 17 16 15 15 15 15 14 14 14 13 13 12 12 12 13 12 12 12 13 13 13 14 13 13 13 12 14 15 16 19 14 14 15 16 16 17 19
45 43 42 41 40 38 37 36 35 33 31 30 28 26 24 23 21 20 19 18 18 18 17 16 16 16 16 16 15 15 14 14 14 15 15 14 15 14 16 16 16 16 16 16 17 18 18 20 20 19 20 20 22 24
48 45 44 42 41 41 40 38 38 36 35 33 31 29 27 25 24 22 21 21 20 20 20 20 19 19 18 19 19 17 17 17 16 16 16 17 18 16 17 19 18 20 19 20 19 20 22 22 21 21 22 22 23 23
49 47 46 43 42 41 40 40 40 38 37 36 34 32 30 28 26 25 23 23 22 22 21 20 20 20 19 18 19 19 19 18 18 19 19 19 19 18 19 20 20 19 18 22 25 25 23 23 21 22 22 22 21 23
52 50 48 46 44 42 40 40 40 39 38 37 36 35 33 31 29 27 26 25 25 23 22 20 19 20 21 22 21 21 21 21 21 20 20 20 20 21 22 21 22 21 22 22 23 21 21 20 20 20 21 22 23 24
52 51 49 47 45 43 40 38 38 38 38 38 37 37 35 33 31 29 28 26 25 24 24 23 23 22 22 21 22 22 22 22 22 21 21 21 21 21 21 20 20 20 21 21 22 20 20 20 21 22 23 23 24 25
52 51 49 47 45 43 40 38 37 37 35 36 36 36 36 34 33 31 28 26 25 25 24 25 25 23 22 23 23 22 22 22 22 23 23 22 21 21 23 21 21 21 21 21 22 22 22 22 23 23 22 23 25 27
50 50 48 46 44 42 40 37 36 35 34 33 34 34 33 33 32 32 31 30 28 27 26 26 26 24 23 23 23 23 23 23 24 24 23 23 22 23 24 25 26 26 24 22 23 24 23 21 20 22 23 25 28 30
49 49 47 46 43 41 39 36 34 33 31 31 28 27 28 30 29 30 31 31 30 29 27 28 26 25 24 24 23 23 24 23 24 25 24 24 24 24 25 25 25 23 23 22 22 21 20 20 22 24 26 28 31 33
47 47 46 45 43 41 40 37 35 32 30 28 26 26 26 28 26 24 26 27 29 30 31 31 29 29 28 26 24 22 23 23 24 24 23 25 27 29 29 27 26 24 23 21 20 21 21 23 25 27 29 32 34 36
46 45 44 43 42 41 40 38 35 33 30 30 27 27 26 25 26 24 23 24 25 27 29 30 29 27 26 24 24 23 22 22 23 24 23 24 23 22 23 24 24 23 22 21 21 23 24 26 28 31 34 36 38 40
44 44 43 43 41 40 38 37 37 34 31 29 26 24 23 24 24 23 24 23 25 24 23 22 23 22 22 23 22 22 22 21 23 21 23 23 22 23 24 21 20 19 19 21 23 25 28 30 32 35 37 40 42 44
42 42 42 40 39 38 37 37 36 33 29 26 25 24 23 23 24 24 25 24 22 21 21 21 20 20 20 21 20 19 21 22 21 23 23 22 23 24 22 22 21 21 22 24 26 28 30 33 36 38 42 44 46 48
38 40 38 37 37 36 36 36 35 31 26 25 25 24 26 23 25 26 25 23 23 22 21 19 18 18 18 19 19 19 20 20 22 22 22 23 25 23 22 23 24 25 26 28 30 32 35 38 41 44 47 50 52 54
31 33 34 36 36 35 35 34 32 29 26 25 24 23 25 25 25 24 23 23 22 21 20 20 19 19 18 19 19 19 19 21 21 21 20 20 20 20 22 24 26 29 31 34 36 38 42 45 49 52 53 55 56 58
26 28 28 32 32 30 31 30 28 28 25 24 24 23 23 23 23 23 24 23 23 21 21 21 20 20 21 20 19 21 21 21 20 21 22 22 24 26 28 29 32 34 37 40 43 46 49 52 54 56 57 58 58 57
23 24 28 30 29 26 25 26 25 24 23 23 23 23 23 22 22 23 23 23 22 21 21 20 21 22 20 22 23 23 23 23 23 25 26 30 33 35 36 38 39 41 44 46 50 52 53 54 54 55 57 58 56 55
22 24 24 25 25 23 21 21 22 22 22 22 21 22 22 21 21 21 21 21 21 22 22 23 23 24 24 24 24 25 25 27 29 32 35 38 39 40 42 44 46 47 47 48 48 50 51 52 53 54 53 53 51 50
20 21 21 22 20 19 19 19 19 19 19 20 19 19 19 18 19 19 20 21 22 23 23 24 25 26 28 29 30 32 34 35 37 40 41 43 44 45 46 46 46 46 46 47 48 48 48 50 49 49 48 47 45 43
17 18 18 18 18 17 17 17 18 18 18 18 18 19 20 20 21 23 24 25 26 27 28 29 30 31 33 35 37 39 40 40 41 42 42 43 43 44 44 44 44 45 46 45 45 46 46 46 43 42 42 40 38 37
15 14 15 16 16 15 16 17 17 17 17 18 19 20 21 22 23 24 25 26 28 30 31 33 35 37 39 40 40 41 41 41 41 42 44 44 44 43 43 44 43 43 43 43 43 44 43 42 42 40 39 37 36 35
15 15 16 15 15 16 17 17 17 18 19 19 20 20 21 22 24 26 27 28 30 31 32 35 37 38 39 39 39 39 40 41 42 43 44 44 44 43 43 42 41 42 42 42 42 42 42 40 39 38 37 36 34 31
16 16 16 16 17 17 17 18 18 19 18 19 19 20 22 23 24 25 27 28 29 32 33 35 36 37 39 40 40 41 41 41 41 42 42 42 42 42 41 41 40 41 41 40 39 39 39 39 38 37 35 33 30 29
17 17 18 18 18 17 18 18 18 19 19 20 21 22 24 26 27 28 30 31 33 31 32 35 35 36 36 37 37 38 38 37 39 40 40 39 39 39 39 40 40 40 41 41 40 39 39 37 37 35 33 32 30 30
17 18 17 18 19 18 20 20 21 22 23 24 24 26 26 26 27 29 30 29 26 26 26 27 28 31 33 34 35 35 35 35 36 37 37 36 38 39 40 40 42 43 41 40 40 40 39 37 36 34 33 32 31 32
18 19 19 19 19 18 20 19 21 22 22 23 24 24 23 23 24 26 23 22 22 23 24 26 28 29 31 31 33 33 34 34 35 37 38 38 39 40 42 42 42 42 40 40 40 39 39 37 36 35 33 32 32 31
13 13 13 14 13 13 14 15 16 17 17 19 18 17 17 18 19 17 17 19 20 23 25 27 28 29 31 33 34 36 37 37 37 40 41 41 40 40 39 39 39 38 36 35 35 35 35 34 33 32 31 30 28 27
11 11 11 12 11 12 12 12 13 13 13 13 12 14 14 14 15 17 19 22 25 27 28 29 31 33 33 34 36 37 37 37 38 38 37 35 34 33 33 31 30 30 28 29 29 29 28 28 28 28 27 26 24 22
12 11 9 11 10 11 12 12 12 12 13 13 14 15 17 19 22 24 26 27 29 28 30 31 30 31 32 32 32 32 33 32 31 31 30 29 28 26 26 25 25 25 26 27 27 26 25 25 24 22 21 19 18 17
12 12 10 10 11 12 13 13 14 15 16 17 19 21 23 24 26 27 28 27 27 28 27 28 29 27 27 27 28 28 28 27 26 26 25 25 24 24 24 24 25 26 26 26 26 24 22 20 18 14 12 11 11 11
9 10 10 11 12 13 14 15 16 16 17 18 20 22 24 24 24 24 24 24 23 25 25 24 25 25 25 24 23 22 22 20 20 20 21 23 23 23 24 24 25 25 25 24 22 19 16 13 11 9 8 8 7 7
8 9 8 9 10 12 12 13 15 16 16 16 18 18 19 19 19 19 19 19 20 21 21 22 22 23 23 23 23 22 23 22 23 24 24 24 25 25 26 25 24 22 21 20 17 13 11 10 7 5 4 4 5 7
8 9 9 10 11 11 11 10 12 13 13 13 13 14 15 16 18 19 19 20 19 19 19 20 21 23 23 25 26 26 26 27 28 27 27 28 27 26 24 23 21 19 17 15 12 10 8 6 5 5 5 5 6 7
Wind_Direction
247 248 249 250 250 250 251 249 250 252 252 253 257 261 263 267 271 272 270 276 273 272 273 274 277 277 274 272 277 276 280 275 268 267 268 271 272 267 273 264 261 258 259 264 263 267 274 269 276 271 279 279 279 283
245 247 247 248 249 249 250 250 249 249 251 251 253 256 259 261 265 268 265 270 271 268 269 272 271 272 272 276 277 272 275 274 270 268 272 275 274 271 272 272 264 269 265 270 262 271 275 272 279 280 281 281 284 287
243 244 245 246 248 248 248 250 247 248 248 250 251 252 255 258 260 263 263 267 267 268 269 268 267 269 270 273 273 272 272 274 274 271 275 275 272 274 271 270 266 270 270 273 278 278 273 275 278 278 281 283 287 289
241 242 243 245 246 247 247 248 246 247 247 247 248 250 251 255 257 260 261 262 264 265 266 266 267 268 273 271 270 268 272 273 272 274 274 274 274 277 276 275 274 273 272 271 275 279 280 279 276 276 281 284 287 289
240 240 241 243 243 245 247 246 244 245 246 246 246 247 250 252 255 257 259 260 260 258 262 266 266 266 270 272 272 269 267 270 272 273 273 273 275 275 275 280 277 271 272 272 279 282 278 279 276 278 281 285 289 292
237 238 238 239 241 241 242 243 244 244 245 245 245 245 247 249 252 255 256 257 256 256 260 263 264 267 271 272 270 268 268 268 269 271 273 274 274 273 277 280 282 276 274 276 279 280 281 279 279 281 283 287 289 292
235 235 236 237 237 236 238 241 242 241 243 244 244 245 244 247 249 250 252 253 252 257 260 264 264 266 269 270 270 267 266 268 268 270 271 273 272 271 276 281 279 279 278 277 278 278 281 277 280 280 283 287 290 293
232 231 231 232 233 233 235 237 238 240 241 243 243 243 243 244 247 249 250 250 254 257 259 259 262 267 267 269 268 268 267 267 268 270 272 272 273 273 278 280 281 279 277 277 276 278 279 278 278 280 286 290 292 295
228 227 228 228 229 229 229 234 236 237 239 238 234 233 241 242 246 249 250 252 254 254 256 258 262 267 265 270 268 267 266 266 268 268 270 272 272 274 279 280 279 277 274 275 276 275 275 276 280 284 288 291 294 297
224 224 225 225 225 227 228 232 233 233 230 226 229 235 243 245 245 247 255 256 257 254 255 258 262 265 268 265 264 264 265 266 268 269 272 272 276 279 278 277 278 273 273 272 273 273 277 281 284 287 290 294 296 298
222 221 221 221 224 227 227 229 227 222 223 229 235 242 246 242 248 251 252 255 256 257 257 260 258 262 259 260 260 260 262 265 268 270 271 277 281 286 285 278 274 273 270 270 272 277 281 284 287 290 293 295 297 299
218 218 220 222 224 223 223 221 217 221 230 230 231 237 241 247 245 246 250 253 254 258 257 258 260 258 258 258 258 259 262 263 267 269 273 278 282 290 291 282 276 271 268 271 276 281 284 287 290 292 294 296 298 299
217 217 218 218 218 217 218 216 215 214 218 229 237 236 239 243 240 244 246 252 254 257 258 259 261 259 259 257 257 258 259 263 268 270 274 278 287 289 285 281 276 273 274 277 281 285 287 289 292 294 296 298 298 298
212 208 212 210 211 211 205 205 208 217 226 230 233 233 237 241 246 249 252 250 255 257 253 256 260 260 257 254 258 262 263 266 269 271 274 282 290 286 285 280 278 277 278 279 283 286 288 291 294 296 297 298 298 299
199 202 205 204 201 199 201 207 213 219 228 231 233 237 240 244 247 252 250 250 254 255 253 254 258 255 256 259 261 263 267 269 271 273 276 283 291 292 290 289 287 283 282 284 287 289 292 294 295 296 297 298 298 299
179 181 186 186 189 196 203 207 215 221 228 231 234 238 242 244 246 248 250 250 251 251 251 253 253 255 255 258 260 261 268 268 275 274 275 280 289 291 292 290 288 288 288 288 289 291 293 295 295 296 297 298 299 298
177 185 182 185 190 195 201 209 216 221 227 233 236 238 242 246 247 248 245 247 246 247 251 253 254 253 261 262 264 265 269 273 277 278 277 283 288 289 289 289 290 291 291 290 292 293 294 295 296 297 298 299 298 297
172 175 177 183 193 201 211 215 218 224 229 234 237 239 244 246 241 243 243 243 245 249 252 254 257 257 260 263 268 271 273 276 278 281 284 286 288 288 289 290 291 291 291 292 293 294 295 296 297 298 298 299 299 297
172 175 179 187 196 203 212 218 223 225 231 232 235 236 237 241 240 243 245 247 250 253 256 259 261 262 264 267 271 275 277 280 283 284 285 286 288 290 290 291 292 292 292 293 294 295 297 298 298 299 299 300 299 299
176 182 190 199 208 215 218 223 226 229 230 233 235 238 242 246 250 253 254 255 257 259 260 262 263 267 270 273 276 279 281 282 284 285 286 288 289 290 291 292 292 292 293 294 295 296 298 298 300 301 301 299 298 299
189 197 204 211 218 223 224 225 230 234 234 239 242 247 250 255 257 259 261 260 261 263 265 267 270 272 274 276 278 280 281 283 284 285 287 289 290 291 292 292 293 293 294 295 296 297 297 298 299 300 300 299 297 297
214 215 220 225 228 231 232 236 236 240 245 249 250 254 259 262 263 265 265 265 266 269 271 273 273 275 276 278 279 280 282 283 285 286 287 288 289 290 291 292 293 292 294 295 296 296 297 297 297 298 298 296 295 294
221 226 229 234 235 239 241 242 246 248 252 253 257 261 263 264 265 270 269 271 275 277 275 274 276 277 278 280 281 282 283 284 285 285 287 288 288 289 289 290 291 292 293 294 295 296 297 297 297 295 296 294 292 292
227 233 235 238 240 243 244 248 252 254 257 258 261 265 266 267 272 273 274 278 280 278 277 278 278 279 281 280 281 283 284 285 285 286 288 288 289 289 289 290 292 292 292 293 294 295 295 296 295 294 292 289 288 289
234 242 240 243 246 248 251 254 255 257 263 263 266 271 272 274 275 276 278 281 280 279 278 280 281 280 282 284 284 284 285 286 287 287 289 288 289 290 291 292 292 293 293 292 292 293 292 292 292 291 290 287 286 287
238 242 241 244 251 249 251 256 258 260 264 266 268 271 274 273 275 275 278 281 279 279 280 282 284 286 285 285 286 287 288 288 288 287 289 290 290 291 293 294 294 294 294 291 291 291 290 289 287 288 287 285 283 285
235 241 240 242 244 246 252 259 261 263 264 265 269 268 270 272 273 275 279 282 283 285 287 288 288 288 288 289 289 289 290 290 288 289 291 292 293 293 292 293 294 296 297 296 294 293 291 288 286 285 285 283 280 281
232 227 224 231 238 246 252 260 260 263 266 264 266 265 265 264 274 284 285 289 290 291 290 290 292 291 291 291 292 292 292 292 292 292 292 293 294 294 294 295 297 299 301 301 301 299 297 294 291 287 283 279 278 279
232 234 231 238 245 252 258 257 263 263 266 266 270 274 277 281 285 288 292 294 294 293 294 296 295 295 295 295 295 296 295 295 294 293 293 295 296 296 297 298 299 301 303 305 306 303 300 299 297 290 281 275 272 275
236 233 242 244 245 252 258 260 272 277 276 277 281 286 286 286 288 292 293 294 295 295 295 298 300 299 298 300 301 302 301 296 293 292 293 294 295 297 298 298 300 301 303 304 305 304 302 303 301 292 281 273 271 272
233 236 248 250 259 267 271 275 280 283 284 284 284 284 287 293 295 297 296 296 296 299 300 301 303 303 302 302 303 307 309 307 303 301 301 300 300 299 298 299 301 301 301 303 304 300 297 298 297 290 279 269 266 270
232 234 241 257 271 278 284 285 287 288 290 290 290 292 296 298 298 302 305 304 304 305 304 306 307 307 306 304 303 301 300 302 302 303 303 304 302 301 299 299 300 299 299 301 298 293 290 287 281 268 259 264 277 287
245 251 262 275 283 288 289 294 299 301 301 303 305 304 301 302 303 308 310 308 307 307 309 311 313 314 310 306 304 303 300 299 299 298 298 301 302 300 299 298 297 293 292 294 287 283 274 257 251 252 258 274 288 300